スペースウォッチ彗星

379P/Spacewatch (2019)

English version
Home page
Updated on March 5, 2020

---------------------------------------------------------------------

・ プロフィール

符号 379P/2019 D2
検出日 2019年2月28日
検出光度 20.1等
検出者 Mount Lemmon Survey

・ 写真集

・ 軌道要素

Epoch 2019 July 16.0 TT = JDT 2458680.5
T 2019 Aug. 1.55461 TT                                  MPCW
q   2.3335702            (2000.0)            P               Q
n   0.14890179     Peri.   31.20171     -0.81768679     +0.57546610
a   3.5253543      Node   184.02862     -0.56242911     -0.80419562
e   0.3380608      Incl.   12.38617     -0.12272660     -0.14868820
P   6.62
From 86 observations 2006 Mar. 26-2019 May 4, mean residual 0".6.

・ 光度変化

        m1 = 14.5 + 5 logΔ + 10.0 log r

---------------------------------------------------------------------

軌道要素はM.P.E.C. 2019-J142に掲載されたものです。
光度グラフはComet for Windowsで作成したものです。

---------------------------------------------------------------------

Copyright(C) Seiichi Yoshida (comet@aerith.net). All rights reserved.